Location: Fatehalanka
(16.3139°N, 80.8379°E)
Time: 19:47:19
(UTC+00:00)

Cosmos 2344 - Pass Details

Date: 14 May 2026
Orbit: 1194 x 3048 km, 63.3° (Epoch: 6 June)

Event Time Altitude Azimuth Distance (km) Brightness Sun altitude
Exits shadow 22:07:16 35° 285° (WNW) 2,179 4.4 -26.7°
Maximum altitude 22:08:01 35° 295° (WNW) 2,128 4.4 -26.5°
Drops below altitude 10° 22:14:51 10° 0° (N) 3,220 6.1 -25.1°
Sets 22:17:43 0° 10° (N) 4,118 6.8 -24.5°
